Weather Roundup
Issued by NWS Springfield, MO

Home | Current Version | Previous Version | Text Only | Print | Product List | Glossary On
Versions: 1 2 3 4 5 6 7 8 9 10 11 12 13 14 15 16 17 18 19 20 21 22 23 24 25 26 27 28 29 30 31 32 33 34 35 36 37 38 39 40 41 42 43 44 45 46 47 48 49 50
000
NZUS99 KSGF 052157
HRRSGF

HOURLY WEATHER
NATIONAL WEATHER SERVICE SPRINGFIELD MO
400 PM CST FRI FEB 05 2016

......SGF CWA......

CITY           SKY/WX    TMP DP  RH WIND       PRES   REMARKS
SPRINGFIELD    SUNNY     50  18  28 SW12      30.30S
JOPLIN         MOSUNNY   51  19  28 SW12      30.31F
WEST PLAINS    SUNNY     51  14  22 SW8       30.32F
ROLLA          SUNNY     44  18  35 CALM      30.30S
BRANSON        PTSUNNY   52  14  22 SW7       30.32S

......SURROUNDING SGF CWA......

CITY           SKY/WX    TMP DP  RH WIND       PRES   REMARKS
CHANUTE        SUNNY     54  23  30 S7        30.28F
PARSONS        SUNNY     53  22  29 S7        30.29F
COFFEYVILLE    SUNNY     54  20  26 S8        30.28F
EMPORIA        MOSUNNY   48  21  34 VRB3      30.26F
HARRISON AR    SUNNY     52  12  20 SW5       30.31S

......KANSAS AND MISSOURI......

CITY           SKY/WX    TMP DP  RH WIND       PRES   REMARKS
KANSAS CTY INT CLOUDY    40  22  48 S7        30.29F
SEDALIA        SUNNY     45  18  34 CALM      30.33F
ST JOSEPH      CLOUDY    39  23  52 S9        30.29F WCI  33
ST LOUIS       CLOUDY    41  15  35 CALM      30.38S
WICHITA        PTSUNNY   52  26  36 S9        30.24S
TOPEKA         CLOUDY    43  21  41 S7        30.28F
OLATHE         CLOUDY    42  20  41 CALM      30.30F

......TENNESSEE......

CITY           SKY/WX    TMP DP  RH WIND       PRES   REMARKS
MEMPHIS        NOT AVBL
NASHVILLE      CLOUDY    48  12  23 S5        30.40F

......ARKANSAS.......

CITY           SKY/WX    TMP DP  RH WIND       PRES   REMARKS
FAYETTEVILLE   SUNNY     50  17  27 SW8       30.32F
FT SMITH       SUNNY     55   8  15 SW3       30.34F
LITTLE ROCK    CLOUDY    53  14  21 S5        30.39F

......OKLAHOMA.......

CITY           SKY/WX    TMP DP  RH WIND       PRES   REMARKS
TULSA          PTSUNNY   56  24  29 S15       30.26F
MCALESTER      SUNNY     56  22  26 S9        30.30F
OKLAHOMA CITY  CLOUDY    54  24  31 S13       30.22F

......IOWA............

CITY           SKY/WX    TMP DP  RH WIND       PRES   REMARKS
DES MOINES     NOT AVBL
QUAD CITIES    CLOUDY    32  18  56 CALM      30.36S

......ILLINOIS........

CITY           SKY/WX    TMP DP  RH WIND       PRES   REMARKS
QUINCY         NOT AVBL
CHICAGO        CLOUDY    32  18  56 W7        30.34R WCI  26



USA.gov is the U.S. government's official web portal to all federal, state and local government web resources and services.